Miscellaneous Local Product
Issued by NWS North Platte, NE

Home | Current Version | Previous Version | Text Only | Print | Product List | Glossary On
Versions: 1 2 3 4 5 6 7 8 9 10 11 12 13 14 15 16 17 18 19 20 21 22 23 24 25 26 27 28 29 30 31 32 33 34 35 36 37 38 39 40 41 42 43 44 45 46 47 48 49 50
000
AXUS43 KLBF 161210
MISLBF


WESTERN AND NORTH CENTRAL NEBRASKA HOURLY WEATHER ROUNDUP
NATIONAL WEATHER SERVICE NORTH PLATTE NE
700 AM CDT TUE SEP 16 2014

***STATIONS NOT REPORTING VARIABLES SUCH AS SKY/WEATHER OR
PRESSURE ARE PROVIDED BY THE NEBRASKA DEPARTMENT OF
ROADS...RAWS...AND APRS NETWORKS...AND ARE NOT UNDER
NATIONAL WEATHER SERVICE QUALITY CONTROL***

...OBSERVATIONS IN AND NEAR THE EASTERN PANHANDLE OF NEBRASKA...

CITY           SKY/WX    TMP DP  RH WIND       PRES   REMARKS
PINE RIDGE     CLEAR     51  47  86 SW6       30.05F
CHADRON        CLEAR     46  46 100 W5        30.04F
ALLIANCE       MOCLDY    51  49  92 N3        30.06F
SIDNEY         PTCLDY    51  49  92 S9        30.13F FOG
WHITECLAY        N/A     48  45  87 SE7         N/A
RUSHVILLE        N/A     45  43  93 W6          N/A
CRESCENT LAKE    N/A     53  51  92 S12         N/A
LISCO            N/A     56  51  82 E12         N/A
BIG SPRINGS      N/A     51  48  91 CALM        N/A
$$

...OBSERVATIONS IN NORTH CENTRAL NEBRASKA...

CITY           SKY/WX    TMP DP  RH WIND       PRES   REMARKS
VALENTINE      CLEAR     49  43  80 S8        30.08F
THEDFORD       CLEAR     52  44  75 S15       30.13F
AINSWORTH      CLEAR     47  42  82 S12       30.11F
O`NEILL        CLEAR     45  43  93 S8        30.17S
ORD            CLEAR     44  41  89 S6        30.19S
BROKEN BOW     CLEAR     46  43  89 S10       30.16F
SPRINGVIEW       N/A     45  41  86 CALM        N/A
ROSE             N/A     45  44  98 E10         N/A
NEWPORT          N/A     45  43  91 S7          N/A
COMSTOCK         N/A     44  43  95 S7          N/A
CHAMBERS         N/A     45  42  91 MISG        N/A
$$

...OBSERVATIONS IN SOUTHWEST NEBRASKA AND FAR NORTHEAST COLORADO...

CITY           SKY/WX    TMP DP  RH WIND       PRES   REMARKS
WRAY           FAIR      54  52  94 S7        30.15R
HOLYOKE        FAIR      54  50  87 S13       30.12S
IMPERIAL       PTCLDY    49  47  93 N9        30.17R
OGALLALA       PTCLDY    52  50  93 S8        30.12S
NORTH PLATTE   MOCLDY    52  43  71 VRB3G28   30.15F
MCCOOK         CLOUDY    50  45  83 MISG      30.20S
LEXINGTON      PTCLDY    48  45  90 SE7       30.20S
PAXTON           N/A     51  46  83 S6          N/A
SUTHERLAND       N/A     48  43  85 S15         N/A
BRADY            N/A     49  43  81 CALM        N/A
GOTHENBURG       N/A     49  42  77 S3          N/A
CALLAWAY         N/A     44  43  95 S10         N/A
$$

...SOME WEATHER OBSERVATIONS FROM AROUND THE REGION...

CITY           SKY/WX    TMP DP  RH WIND       PRES   REMARKS
DENVER         CLEAR     57  45  64 SW16      30.17F
LARAMIE        PTCLDY    45  36  70 S8        30.29S
CHEYENNE       MOCLDY    59  37  44 W16       30.21R
SCOTTSBLUFF    PTCLDY    49  48  97 SE5       30.07F
RAPID CITY     CLEAR     42  39  89 CALM      30.04R
PIERRE         CLEAR     46  41  82 SE12      30.04F
WINNER         FAIR      52  42  69 S18       30.07F
SIOUX FALLS    CLEAR     40  38  93 CALM      30.19F
OMAHA          PTCLDY    45  43  93 S6        30.26S FOG
GRAND ISLAND   CLEAR     46  42  86 S7        30.22F
KANSAS CITY    PTCLDY    46  45  96 NE5       30.25R
WICHITA        CLOUDY    60  51  72 NE9       30.21R
HAYS           CLOUDY    52  45  76 E8        30.23S
LIBERAL        CLOUDY    61  54  77 SE6       30.23F
GOODLAND       CLOUDY    58  54  86 S12       30.18F
$$



USA.gov is the U.S. government's official web portal to all federal, state and local government web resources and services.